Regional Weather Roundup
Issued by NWS Newport/Morehead, NC

Current Version | Previous Version | Graphics & Text | Print | Product List | Glossary Off
Versions: 1 2 3 4 5 6 7 8 9 10 11 12 13 14 15 16 17 18 19 20 21 22 23 24 25 26 27 28 29 30 31 32 33 34 35 36 37 38 39 40 41 42 43 44 45 46 47 48 49 50

000
ASUS42 KMHX 062313
RWRMHX
WEATHER ROUNDUP FOR EASTERN NORTH CAROLINA
NATIONAL WEATHER SERVICE NEWPORT/MOREHEAD CITY NC
700 PM EDT MON JUL 06 2015

NOTE: "FAIR" INDICATES FEW OR NO CLOUDS BELOW 12,000 FEET
WITH NO SIGNIFICANT WEATHER AND/OR OBSTRUCTIONS TO VISIBILITY

NCZ015>017-031-032-045>047-102-103-070000-
NORTH COAST

CITY           SKY/WX    TMP DP  RH WIND       PRES   REMARKS
EDENTON          N/A     84  75  73 S10       30.07S
ELIZABETH CITY MOSUNNY   83  74  74 S9        30.08S
KITTY HAWK     CLOUDY    84  74  70 S8G16     30.09R
MANTEO         PTSUNNY   82  74  77 S16       30.10S

$$

NCZ045>047-081-094-103-104-070000-
CENTRAL COAST

CITY           SKY/WX    TMP DP  RH WIND       PRES   REMARKS
FRISCO         PTSUNNY   80  75  84 S10       30.12S
SWANQUARTER      N/A     84 N/A N/A S7G22     30.06S

$$

NCZ095-097-098-100-101-070000-
SOUTHERN COAST

CITY           SKY/WX    TMP DP  RH WIND       PRES   REMARKS
BEAUFORT       MOSUNNY   82  73  74 S15G24    30.11S
CEDAR ISLAND     N/A     86 N/A N/A SE8G17    30.15S
JACKSONVILLE   MOSUNNY   82  72  71 SW10G16   30.09S
PINEY ISLAND   PTCLDY   N/A N/A N/A S13       30.10S
WILMINGTON     SUNNY     85  71  63 S10       30.10R


$$

NCZ011>013-027>030-043-044-078>080-089-090>093-098-070000-
COASTAL PLAIN

CITY           SKY/WX    TMP DP  RH WIND       PRES   REMARKS
AHOSKIE        MOSUNNY   83  71  67 CALM      30.05S
CLINTON        SUNNY     88  71  57 S5        30.07S
ELIZABETHTOWN  MOSUNNY   85  70  60 S14       30.08R
GOLDSBORO      SUNNY     89  67  47 CALM      30.04S
GREENVILLE     SUNNY     88  73  62 S13       30.07S
HAVELOCK       MOSUNNY   83  71  67 S13G18    30.11R
KENANSVILLE    MOSUNNY   88  67  49 SE8       30.08S
KINSTON        NOT AVBL
NEW BERN       SUNNY     84  71  65 S12       30.10S
RICHLANDS      PTSUNNY   82  70  65 SE12      30.09S
ROCKY MOUNT    SUNNY     89  69  51 S7        30.05F
WASHINGTON     MOSUNNY   84  73  68 S12       30.07S
WHITEVILLE     PTSUNNY   76  72  88 E6        30.09F

$$

AMZ130-135-150-152-154-156-158-170-250-252-270-ANZ085-086-088-633-658-670-070000-
MARINE OBSERVATIONS

STATION/POSITION TIME  TEMP    WIND        PRES    WAVE   SWELL
                       AIR SEA DIR/SP/G            HT/PER HT/PER
                 (UTC) (F)     (DEG/KT/KT) (MB)    (FT/S) (FT/S)
CHESAPEAKE LIGHT 2300   79     180/ 17/ 17 1018.5
64 E VA BEACH    2250   79 77  190/ 14/ 16 1018.6    3/ 9   2/ 9
DUCK             2200   81 77  180/ 13/ 16   N/A
2 E DUCK         2211      78                N/A     2/ 5
OREGON INLET     2200   81 81  180/ 10/ 14 1019.3
13E OREGON INLT  2300      78                N/A     3/ 9   2/14
HATTERAS CG      2200   81 81  170/ 11/ 13 1019.4
DIAMOND BUOY     2250   81 82  200/ 17/ 19 1019.8    3/ 8   2/ 8
CAPE LOOKOUT     2300   82     200/ 11/ 13 1019.4
BEAUFORT LAB     2200   82 83  200/ 14/ 17 1018.9
30 SE NEW RVR IN NOT AVBL
27 SE WRIGHTSVLE 2200      80  200/ 12/ 14   N/A
5 SE WRIGHTSVLE  2208   81 79  200/ 16/ 19 1019.3
225 S CAPE HAT   2250   81 80  220/ 10/ 12 1022.0    4/ 8   3/ 8
41 SE CHARLESTON 2250   80 83  200/ 10/ 12 1019.6    3/ 9   2/ 9

$$


USA.gov is the U.S. government's official web portal to all federal, state and local government web resources and services.